Tracking 21094 objects as of 12-Aug-2020
HD Live streaming from Space Station
objects crossing your sky now
Track the most recent launched group of Starlink satellites

STARLINK 1062

Track STARLINK 1062 now!
10-day predictions
STARLINK 1062 is classified as:


NORAD ID: 44767
Int'l Code: 2019-074BG
Perigee: 556.1 km
Apogee: 557.7 km
Inclination: 53.0 °
Period: 95.6 minutes
Semi major axis: 6927 km
RCS: Unknown
Launch date: November 11, 2019
Source: United States (US)
Launch site: AIR FORCE EASTERN TEST RANGE (AFETR)
aabbcc
Your satellite tracking list
Your tracking list is empty




NASA's NSSDC Master Catalog

Two Line Element Set (TLE):
1 44767U 19074BG  20224.91667824  .00013514  00000-0  94505-3 0  9992
2 44767  53.0020   5.5509 0001190  97.2217 109.2983 15.05573403 41542
Source of the keplerian elements: AFSPC